[[{"header":{"parameterUnit":"m.s-1","parameterCategory":1,"la1":30.2991,"la2":30.254,"lo1":-89.0895,"lo2":-89.0444,"dy":0.0017,"dx":0.0017,"nx":28,"ny":28,"refTime":"2025-11-23T03:00:00:Z","depth":0,"parameterNumber":2,"parameterNumberName":"U-component_of_WINDS"},"data":[0,0,0,0,0,0,0,0,0,0,0,0,0,0,0,0,0,0,0,0,0,0,0,0,0,0,0,0,0,0,0,0,0,0,0,0,0,0,0,0,0,0,0,0,0,0,0,0,0,0,0,0,0,0,0,0,0,0,0.8834,0.8834,0,0.8861,0.8862,0.8862,0.8845,0.8844,0.8844,0.8843,0.8874,0.8875,0.8877,0,0,0,0,0,0,0,0,0,0,0,0,0,0.877,0.8771,0.8834,0.8834,0.8835,0.8861,0.8862,0.8862,0.8845,0.8844,0.8843,0.8842,0.8873,0.8875,0.8877,0,0,0,0,0,0,0,0,0,0,0,0,0,0.8797,0.8771,0.8834,0.8829,0.8829,0.8861,0.8862,0.8862,0.8845,0.8844,0.8843,0.8842,0.8873,0.8875,0.8877,0.8916,0,0,0.8884,0.8885,0,0,0,0,0,0,0,0,0.8796,0.88,0.883,0.883,0.883,0.8849,0.885,0.888,0.8846,0.8839,0.8843,0.8841,0.8866,0.8869,0.8877,0.8918,0.8919,0.8885,0.8886,0.8887,0.8888,0,0,0,0,0,0,0,0.8794,0.8799,0.8845,0.883,0.883,0.8827,0.883,0.8856,0.886,0.884,0.8839,0.8842,0.8866,0.8875,0.8878,0.8919,0.8885,0.8887,0.8888,0.8889,0.8995,0.8996,0,0,0,0,0,0,0.8792,0.8797,0.8844,0.8846,0.8809,0.8829,0.8832,0.8844,0.8859,0.886,0.8843,0.8841,0.8872,0.8875,0.8879,0.8926,0.8887,0.8889,0.8891,0.8993,0.8995,0.8997,0,0,0,0,0,0,0.8791,0.8796,0.8843,0.8821,0.8827,0.8831,0.8845,0.8845,0.8854,0.8862,0.8862,0.8851,0.8871,0.8876,0.8907,0.8927,0.889,0.8893,0.8992,0.8994,0.8996,0.9021,0,0,0,0,0,0,0.8789,0.8796,0.881,0.8821,0.8828,0.887,0.8846,0.8846,0.8857,0.8855,0.8869,0.8871,0.887,0.8904,0.891,0.893,0.8894,0.899,0.8993,0.8995,0.9019,0.9024,0.9029,0,0,0,0,0,0.8787,0.8816,0.8811,0.8817,0.8845,0.8871,0.8875,0.8873,0.8859,0.8874,0.8879,0.887,0.8924,0.8907,0.8913,0.8935,0.8989,0.8992,0.8995,0.9017,0.9023,0.9029,0,0,0,0,0,0,0.8808,0.8818,0.8812,0.8846,0.8858,0.8868,0.8886,0.888,0.8896,0.8894,0.8891,0.8895,0.8928,0.8935,0.8916,0.8974,0.8954,0.8959,0.8969,0.8975,0.898,0.8978,0.8896,0,0,0,0,0,0.8816,0.8835,0.8843,0.8873,0.8879,0.8882,0.8893,0.889,0.8903,0.8908,0.8916,0.8929,0.8949,0.8962,0.8981,0.902,0.9023,0.9038,0.9043,0.9046,0.9051,0.9073,0.908,0.9007,0.9007,0.9007,0,0,0.8834,0.8842,0.8854,0.8877,0.8886,0.8907,0.8886,0.8909,0.8924,0.8912,0.8942,0.8948,0.8963,0.8999,0.9015,0.9005,0.9072,0.905,0.9054,0.9056,0.9077,0.9084,0.909,0.9009,0.9009,0.9008,0,0,0.8878,0.8885,0.8911,0.892,0.8934,0.8936,0.8942,0.8954,0.8957,0.8987,0.8978,0.8998,0.9032,0.9043,0.9053,0.9102,0.9095,0.9109,0.9134,0.9156,0.9162,0.9167,0.9186,0.9192,0.9113,0.9113,0.9113,0,0.8899,0.8929,0.8925,0.8949,0.896,0.8948,0.8975,0.8985,0.9004,0.9013,0.9001,0.9045,0.9054,0.9092,0.9104,0.9113,0.9121,0.9107,0.9161,0.9166,0.9171,0.9189,0.9196,0.9114,0.9114,0.9114,0.9114,0,0.8954,0.8975,0.8995,0.9013,0.9026,0.9051,0.9053,0.9067,0.9063,0.9067,0.9099,0.9109,0.9131,0.914,0.9137,0.9178,0.9172,0.9161,0.9141,0.918,0.9196,0.9203,0.9117,0.9116,0.9115,0.9115,0,0,0.9011,0.9028,0.9035,0.9044,0.9058,0.9075,0.9101,0.9121,0.9133,0.9147,0.9169,0.9199,0.9189,0.9201,0.9199,0.9218,0.9258,0.9205,0.9205,0.9215,0.9306,0.9314,0.9322,0.9253,0.9254,0.9255,0.9305,0,0.9056,0.9099,0.9097,0.9138,0.9158,0.9149,0.9171,0.9183,0.9187,0.9206,0.9211,0.9232,0.9217,0.9224,0.9243,0.9249,0.9276,0.9245,0.9275,0.9276,0.9272,0.9331,0.934,0.9386,0.9311,0.9312,0.9313,0,0.9114,0.913,0.9172,0.9185,0.9193,0.9213,0.9232,0.925,0.9264,0.9266,0.9279,0.9275,0.9302,0.9281,0.9319,0.9298,0.931,0.9316,0.9317,0.932,0.9297,0.9336,0.9401,0.9408,0.9323,0.9322,0.9322,0,0.9153,0.9184,0.9214,0.9222,0.9237,0.9251,0.9259,0.9271,0.9284,0.9301,0.931,0.933,0.9341,0.9357,0.9359,0.9344,0.9398,0.9377,0.9402,0.9402,0.9414,0.9413,0.9482,0.942,0.942,0.942,0.942,0,0.9203,0.923,0.9232,0.925,0.928,0.9279,0.9309,0.9315,0.9327,0.9347,0.934,0.936,0.9361,0.9381,0.9383,0.9415,0.942,0.9423,0.9423,0.9424,0.9424,0.9432,0.943,0.9422,0.9422,0.9421,0.9421,0,0.9251,0.9253,0.9285,0.9297,0.9301,0.9323,0.9334,0.9352,0.9356,0.9382,0.9388,0.9394,0.9418,0.9422,0.945,0.9451,0.949,0.9486,0.9485,0.9484,0.9509,0.9507,0.9586,0.9597,0.9528,0.9528,0.9529,0,0.9283,0.9304,0.9318,0.9331,0.9339,0.9359,0.9372,0.9372,0.9386,0.9404,0.9421,0.9444,0.9462,0.9501,0.9509,0.9531,0.9529,0.9555,0.9532,0.9532,0.953,0.9529,0.9532,0.9559,0.956,0.9561,0.9561,0,0.9341,0.9341,0.936,0.9379,0.9394,0.941,0.9424,0.9435,0.9437,0.9453,0.9477,0.9492,0.952,0.9544,0.9566,0.9575,0.9569,0.9568,0.9575,0.9577,0.9575,0.9577,0.9498,0.9567,0.9566,0.9566,0.9565,0.9565,0.9383,0.9401,0.9414,0.9435,0.9446,0.946,0.9478,0.9484,0.9504,0.9526,0.9525,0.9552,0.9567,0.9596,0.9606,0.9628,0.962,0.963,0.9632,0.9635,0.9638,0.9571,0.9632,0.9632,0.9632,0.9632,0.9632,0,0.944,0.9449,0.9468,0.9488,0.9506,0.9498,0.9514,0.9529,0.9552,0.9566,0.9585,0.9613,0.9636,0.9646,0.9669,0.9685,0.9683,0.9691,0.9691,0.9693,0.9644,0.9636,0.9693,0.9693,0.9693,0.9693,0.9693,0.9693,0.9473,0.9503,0.9505,0.9542,0.955,0.9575,0.9585,0.9599,0.961,0.9642,0.9661,0.9667,0.968,0.9704,0.9726,0.9728,0.9738,0.9747,0.9749,0.9702,0.9696,0.969,0.9683,0.9749,0.9749,0.9796,0.9797,0.9797]},{"header":{"parameterUnit":"m.s-1","parameterCategory":1,"la1":30.2991,"la2":30.254,"lo1":-89.0895,"lo2":-89.0444,"dy":0.0017,"dx":0.0017,"nx":28,"ny":28,"refTime":"2025-11-23T03:00:00:Z","depth":0,"parameterNumber":3,"parameterNumberName":"V-component_of_WINDS"},"data":[0,0,0,0,0,0,0,0,0,0,0,0,0,0,0,0,0,0,0,0,0,0,0,0,0,0,0,0,0,0,0,0,0,0,0,0,0,0,0,0,0,0,0,0,0,0,0,0,0,0,0,0,0,0,0,0,0,0,0.4162,0.4162,0,0.422,0.4221,0.4222,0.4233,0.4232,0.4232,0.4231,0.4294,0.4296,0.4298,0,0,0,0,0,0,0,0,0,0,0,0,0,0.4062,0.4064,0.4162,0.4163,0.4163,0.422,0.4221,0.4222,0.4233,0.4232,0.4232,0.4231,0.4293,0.4296,0.4298,0,0,0,0,0,0,0,0,0,0,0,0,0,0.4111,0.4064,0.4162,0.4176,0.4177,0.422,0.4221,0.4222,0.4233,0.4232,0.4231,0.4231,0.4292,0.4296,0.4299,0.4332,0,0,0.4308,0.431,0,0,0,0,0,0,0,0,0.4108,0.4115,0.4173,0.4175,0.4177,0.4218,0.4209,0.4259,0.4233,0.4212,0.4231,0.423,0.427,0.4275,0.4287,0.4335,0.4338,0.4309,0.4311,0.4312,0.4313,0,0,0,0,0,0,0,0.4105,0.4112,0.4185,0.4174,0.4176,0.4179,0.4186,0.4218,0.4244,0.4214,0.4215,0.4221,0.4271,0.4284,0.4289,0.4339,0.4309,0.4311,0.4313,0.4315,0.4417,0.4418,0,0,0,0,0,0,0.4099,0.411,0.4183,0.4187,0.414,0.4182,0.4189,0.4206,0.4244,0.4249,0.4222,0.4222,0.4279,0.4285,0.4291,0.4333,0.4312,0.4315,0.4317,0.4416,0.4417,0.4418,0,0,0,0,0,0,0.4097,0.4105,0.4181,0.4148,0.4158,0.4184,0.4203,0.4207,0.4221,0.425,0.4255,0.4231,0.4279,0.4287,0.4322,0.4335,0.4316,0.4319,0.4415,0.4416,0.4418,0.4416,0,0,0,0,0,0,0.4094,0.4104,0.4117,0.4149,0.416,0.421,0.4204,0.4209,0.4226,0.4226,0.426,0.4264,0.4279,0.4317,0.4325,0.4339,0.4322,0.4414,0.4416,0.4417,0.4415,0.4417,0.4419,0,0,0,0,0,0.409,0.4115,0.4118,0.4127,0.4176,0.4211,0.4217,0.4232,0.4227,0.424,0.4259,0.4263,0.4332,0.432,0.4329,0.4345,0.4413,0.4415,0.4417,0.4415,0.4417,0.4419,0,0,0,0,0,0,0.4086,0.412,0.4123,0.4159,0.4182,0.4212,0.423,0.4235,0.426,0.426,0.4278,0.4286,0.432,0.4336,0.4322,0.4379,0.4372,0.4376,0.4367,0.437,0.4372,0.4368,0.4324,0,0,0,0,0,0.4089,0.4113,0.4142,0.4171,0.4182,0.4204,0.4219,0.4229,0.4254,0.4264,0.4285,0.4309,0.4336,0.4354,0.4381,0.4417,0.4425,0.4432,0.4434,0.4436,0.4439,0.4459,0.4463,0.4424,0.4424,0.4424,0,0,0.4096,0.4118,0.4132,0.4171,0.4189,0.4215,0.4212,0.4239,0.4258,0.4268,0.4302,0.4318,0.4347,0.4383,0.44,0.4397,0.4451,0.4438,0.4439,0.4442,0.4462,0.4465,0.4468,0.4425,0.4425,0.4425,0,0,0.4122,0.4141,0.4167,0.4185,0.4213,0.4227,0.4233,0.4263,0.4274,0.4308,0.4316,0.4339,0.4385,0.4405,0.4421,0.4453,0.4458,0.4461,0.4471,0.4491,0.4494,0.4497,0.4508,0.4512,0.4464,0.4464,0.4464,0,0.4128,0.4166,0.418,0.4206,0.4223,0.4231,0.4258,0.4275,0.4311,0.4322,0.4319,0.4376,0.4396,0.4437,0.4444,0.4457,0.4465,0.4458,0.4492,0.4495,0.4498,0.4509,0.4513,0.4464,0.4464,0.4464,0.4464,0,0.4171,0.4197,0.4215,0.4248,0.4266,0.4293,0.4311,0.4328,0.4335,0.435,0.4384,0.4408,0.4439,0.445,0.4458,0.4491,0.4489,0.4488,0.4482,0.4502,0.4512,0.4517,0.4464,0.4464,0.4464,0.4464,0,0,0.4198,0.4237,0.4243,0.4257,0.4288,0.4309,0.4335,0.4365,0.4379,0.4403,0.4426,0.4464,0.4463,0.4482,0.4492,0.4509,0.4533,0.4507,0.4508,0.4511,0.4571,0.4571,0.4576,0.4536,0.4537,0.4537,0.4568,0,0.4228,0.4275,0.4287,0.4327,0.4351,0.4359,0.4382,0.4404,0.4417,0.444,0.4456,0.4483,0.448,0.4491,0.4508,0.4526,0.4545,0.4524,0.4558,0.4559,0.4551,0.4581,0.4582,0.4611,0.4573,0.4573,0.4574,0,0.4269,0.4292,0.4334,0.4361,0.4372,0.4392,0.4419,0.4441,0.4465,0.4474,0.4494,0.4502,0.4531,0.4522,0.4561,0.4547,0.4561,0.4572,0.4574,0.4578,0.4568,0.4587,0.462,0.4624,0.4581,0.458,0.458,0,0.4285,0.4326,0.4357,0.4369,0.4401,0.4415,0.4429,0.4453,0.4469,0.4493,0.4504,0.4531,0.4547,0.4568,0.4583,0.4576,0.4622,0.4614,0.463,0.463,0.4641,0.464,0.4677,0.4649,0.4649,0.4649,0.4649,0,0.4317,0.4343,0.4364,0.4383,0.4411,0.4425,0.4454,0.4468,0.4489,0.4511,0.4519,0.454,0.4559,0.4582,0.4595,0.4625,0.4632,0.4641,0.4644,0.464,0.4639,0.4651,0.465,0.465,0.465,0.4649,0.4649,0,0.434,0.4355,0.4389,0.4415,0.4422,0.4442,0.4465,0.4484,0.4497,0.4525,0.4533,0.4554,0.4582,0.4599,0.4635,0.4643,0.4677,0.4679,0.4668,0.467,0.4685,0.4684,0.4731,0.4738,0.4705,0.4705,0.4705,0,0.436,0.438,0.4408,0.4422,0.4436,0.446,0.4476,0.4491,0.4507,0.4536,0.4551,0.4579,0.4602,0.4646,0.4665,0.4692,0.4696,0.471,0.47,0.4696,0.4697,0.4696,0.4698,0.4713,0.4713,0.4713,0.4713,0,0.4394,0.44,0.4423,0.4448,0.4467,0.4488,0.4509,0.452,0.4538,0.4557,0.4584,0.4602,0.4637,0.4665,0.4693,0.4709,0.4714,0.4716,0.4721,0.4719,0.4712,0.4716,0.4674,0.4715,0.4715,0.4715,0.4715,0.4715,0.4417,0.4434,0.4456,0.4481,0.4498,0.4517,0.4535,0.455,0.4573,0.4602,0.4609,0.4638,0.4661,0.47,0.4716,0.4739,0.4737,0.4745,0.4747,0.4748,0.4749,0.4707,0.4744,0.4744,0.4744,0.4744,0.4744,0,0.4452,0.4466,0.4488,0.4516,0.4536,0.4537,0.456,0.4577,0.4602,0.4622,0.4644,0.4676,0.4702,0.4723,0.475,0.4765,0.4768,0.4772,0.4771,0.4775,0.4749,0.4742,0.4769,0.4769,0.4768,0.4768,0.4768,0.4768,0.4472,0.4502,0.451,0.4548,0.4562,0.459,0.4602,0.462,0.4636,0.4671,0.4692,0.4705,0.4726,0.4754,0.4779,0.4784,0.4794,0.4797,0.4803,0.4779,0.4777,0.4774,0.4767,0.4799,0.4799,0.4827,0.4828,0.4828]}]]